WXM80 ListenWXM80 Stop

You find our weather info also at:

UK Metoffice

WeatherCloud

Weather Underground

Northeastern Weather Network

AWEKAS

Citizen Weather Observer Program (CWOP)

HAMweather, WeatherForYou, PWS Weather


Weather Underground History page Text

Daily Summary for November 27, 2017 Units:  Metric    English   Both
« Previous Day
Next Day »
Daily Weekly Monthly Yearly Custom
  High: Low: Average:
Temperature: 10 °C 3.3 °C 6.7 °C
Dew Point: 1.3 °C -3.4 °C -1.1 °C
Humidity: 73 % 48 % 58 %
Wind Speed: 18.5 km/h 0.5 km/h 7.9 km/h
Wind Gust: 35.2 km/h - -
Wind:- - WSW
Pressure: 1026.6 hPa 1014.4 hPa -
Precipitation: 0 mm    
Historical Graphs
 
 
Tabular Data for November 27, 2017
Time Temperature Dew Point Pressure Wind Wind Speed Wind Gust Humidity Rainfall Rate (Hourly)
00:03 3.7 °C -1.7 °C 1015.1 hPa SSW 2.1 km/h 8 km/h 68 % 0 mm
00:08 3.7 °C -1.7 °C 1015.1 hPa SW 1 km/h 5.6 km/h 68 % 0 mm
00:13 3.7 °C -1.7 °C 1015.1 hPa WSW 3.7 km/h 5.6 km/h 68 % 0 mm
00:18 3.8 °C -1.6 °C 1015.1 hPa WSW 2.9 km/h 5.6 km/h 68 % 0 mm
00:23 3.8 °C -1.6 °C 1015.1 hPa WSW 3.5 km/h 9.3 km/h 68 % 0 mm
00:29 3.8 °C -1.6 °C 1015.1 hPa West 4 km/h 13 km/h 68 % 0 mm
00:34 3.9 °C -1.2 °C 1015.1 hPa WSW 3.5 km/h 7.4 km/h 69 % 0 mm
00:39 4 °C -1.4 °C 1014.8 hPa SW 9.3 km/h 13 km/h 68 % 0 mm
00:44 4.1 °C -1.3 °C 1014.8 hPa WSW 5.1 km/h 9.7 km/h 68 % 0 mm
00:49 4.2 °C -1.4 °C 1014.8 hPa SW 4.7 km/h 7.4 km/h 67 % 0 mm
00:54 4.2 °C -1.4 °C 1014.8 hPa WNW 5.3 km/h 11.1 km/h 67 % 0 mm
00:59 4.3 °C -1.3 °C 1014.8 hPa WSW 5 km/h 11.3 km/h 67 % 0 mm
01:04 4.5 °C -1.3 °C 1014.8 hPa SW 5.8 km/h 18.5 km/h 66 % 0 mm
01:09 4.6 °C -1.2 °C 1014.8 hPa NW 7.7 km/h 19.3 km/h 66 % 0 mm
01:14 4.7 °C -1.3 °C 1014.8 hPa SW 6 km/h 7.4 km/h 65 % 0 mm
01:19 4.8 °C -1.3 °C 1014.8 hPa South 6.3 km/h 11.1 km/h 65 % 0 mm
01:24 4.8 °C -1 °C 1015.1 hPa West 15 km/h 16.7 km/h 66 % 0 mm
01:29 4.9 °C -1.1 °C 1015.1 hPa SW 9 km/h 25.9 km/h 65 % 0 mm
01:34 4.9 °C -1.1 °C 1015.1 hPa SSW 4.3 km/h 13 km/h 65 % 0 mm
01:39 5 °C -1.1 °C 1014.8 hPa South 2.9 km/h 18.5 km/h 65 % 0 mm
01:45 5 °C -1.3 °C 1014.8 hPa SW 8.9 km/h 18.5 km/h 64 % 0 mm
01:50 5 °C -1.1 °C 1014.8 hPa West 5.5 km/h 13 km/h 65 % 0 mm
01:55 5.1 °C -1.2 °C 1014.8 hPa NW 8.7 km/h 16.7 km/h 64 % 0 mm
02:00 5.1 °C -1 °C 1015.1 hPa West 3.9 km/h 14.5 km/h 65 % 0 mm
02:05 5 °C -1.3 °C 1014.8 hPa WSW 6.9 km/h 14.8 km/h 64 % 0 mm
02:06 5.1 °C -1.2 °C 1014.8 hPa WSW 9.7 km/h 19.3 km/h 64 % 0 mm
02:11 5 °C -1.1 °C 1014.8 hPa SW 3.2 km/h 9.7 km/h 65 % 0 mm
02:16 5 °C -1.1 °C 1014.8 hPa WSW 11.3 km/h 19.3 km/h 65 % 0 mm
02:21 4.9 °C -1.1 °C 1014.8 hPa WSW 11.3 km/h 25.7 km/h 65 % 0 mm
02:26 4.9 °C -1.3 °C 1014.8 hPa SW 4.8 km/h 16.1 km/h 64 % 0 mm
02:31 4.9 °C -1.3 °C 1014.8 hPa SW 8 km/h 14.5 km/h 64 % 0 mm
02:36 4.9 °C -1.3 °C 1014.8 hPa SW 4.8 km/h 12.9 km/h 64 % 0 mm
02:41 4.8 °C -1.2 °C 1014.8 hPa SW 3.2 km/h 9.7 km/h 65 % 0 mm
02:46 4.8 °C -1.3 °C 1014.8 hPa SW 8 km/h 14.5 km/h 65 % 0 mm
02:51 4.7 °C -1.3 °C 1014.4 hPa WSW 4.8 km/h 11.3 km/h 65 % 0 mm
02:56 4.7 °C -1.3 °C 1014.4 hPa WSW 4.8 km/h 14.5 km/h 65 % 0 mm
03:01 4.6 °C -1.2 °C 1014.8 hPa West 4.5 km/h 14.8 km/h 66 % 0 mm
03:06 4.6 °C -1.2 °C 1014.8 hPa SW 1.8 km/h 5.6 km/h 66 % 0 mm
03:11 4.6 °C -1.1 °C 1014.4 hPa SW 5.5 km/h 11.1 km/h 67 % 0 mm
03:16 4.6 °C -1.1 °C 1014.4 hPa WSW 6.8 km/h 13 km/h 67 % 0 mm
03:21 4.6 °C -1.1 °C 1014.4 hPa West 10 km/h 20.9 km/h 67 % 0 mm
03:26 4.6 °C -1.1 °C 1014.4 hPa SSW 4 km/h 8 km/h 67 % 0 mm
03:31 4.5 °C -1.1 °C 1014.4 hPa SSW 10.6 km/h 16.7 km/h 67 % 0 mm
03:36 4.5 °C -1.3 °C 1014.8 hPa WSW 3.5 km/h 11.3 km/h 66 % 0 mm
03:41 4.5 °C -1.3 °C 1014.8 hPa WSW 5 km/h 7.4 km/h 66 % 0 mm
03:46 4.4 °C -1.3 °C 1014.8 hPa SW 5.6 km/h 8 km/h 66 % 0 mm
03:47 4.4 °C -1.3 °C 1014.8 hPa SW 5 km/h 11.1 km/h 66 % 0 mm
03:52 4.4 °C -1.4 °C 1014.8 hPa WSW 4.3 km/h 5.6 km/h 66 % 0 mm
03:57 4.3 °C -1.4 °C 1014.8 hPa SSW 3.2 km/h 7.4 km/h 66 % 0 mm
04:02 4.3 °C -1.5 °C 1014.8 hPa South 5.1 km/h 11.1 km/h 66 % 0 mm
04:08 4.2 °C -1.6 °C 1014.8 hPa SSW 5.8 km/h 9.3 km/h 66 % 0 mm
04:13 4.2 °C -1.6 °C 1014.8 hPa WSW 5.3 km/h 11.1 km/h 66 % 0 mm
04:18 4.1 °C -1.7 °C 1014.8 hPa SW 2.3 km/h 9.3 km/h 66 % 0 mm
04:23 4.1 °C -1.7 °C 1014.8 hPa SSW 2.4 km/h 5.6 km/h 66 % 0 mm
04:28 3.9 °C -1.8 °C 1014.8 hPa SSW 5.5 km/h 9.3 km/h 66 % 0 mm
04:33 3.9 °C -1.7 °C 1014.8 hPa SSW 6.1 km/h 11.1 km/h 67 % 0 mm
04:38 3.8 °C -1.7 °C 1014.8 hPa WSW 5 km/h 7.4 km/h 67 % 0 mm
04:43 3.7 °C -1.8 °C 1014.8 hPa SSW 2.1 km/h 6.4 km/h 67 % 0 mm
04:48 3.7 °C -1.9 °C 1014.8 hPa SSW 3.2 km/h 7.4 km/h 67 % 0 mm
04:58 3.6 °C -1.8 °C 1015.1 hPa SW 5.3 km/h 13 km/h 68 % 0 mm
05:03 3.5 °C -1.8 °C 1015.1 hPa SSW 2.4 km/h 7.4 km/h 68 % 0 mm
05:08 3.5 °C -1.8 °C 1015.1 hPa SW 4 km/h 7.4 km/h 68 % 0 mm
05:13 3.4 °C -1.9 °C 1015.1 hPa SW 2.9 km/h 5.6 km/h 68 % 0 mm
05:18 3.4 °C -1.9 °C 1015.1 hPa WSW 2.1 km/h 5.6 km/h 68 % 0 mm
05:23 3.4 °C -1.9 °C 1015.1 hPa WSW 1.4 km/h 9.7 km/h 68 % 0 mm
05:28 3.3 °C -1.8 °C 1015.5 hPa SW 1.8 km/h 5.6 km/h 69 % 0 mm
05:33 3.3 °C -1.8 °C 1015.5 hPa SW 1.9 km/h 4.8 km/h 69 % 0 mm
05:38 3.3 °C -1.8 °C 1015.5 hPa SW 2.4 km/h 5.6 km/h 69 % 0 mm
05:43 3.3 °C -1.7 °C 1015.5 hPa SW 2.4 km/h 5.6 km/h 70 % 0 mm
05:48 3.3 °C -1.5 °C 1015.5 hPa WSW 3.5 km/h 5.6 km/h 71 % 0 mm
05:53 3.3 °C -1.2 °C 1015.8 hPa West 6.1 km/h 11.3 km/h 72 % 0 mm
05:58 3.4 °C -0.9 °C 1015.8 hPa SW 8.2 km/h 13 km/h 73 % 0 mm
06:02 3.6 °C -0.8 °C 1015.8 hPa WSW 5.3 km/h 14.8 km/h 73 % 0 mm
06:07 3.8 °C -0.8 °C 1015.8 hPa WSW 8 km/h 9.3 km/h 72 % 0 mm
06:12 4.1 °C -0.7 °C 1015.8 hPa West 6.3 km/h 18.5 km/h 71 % 0 mm
06:17 4.3 °C -0.5 °C 1016.1 hPa WNW 8 km/h 9.3 km/h 71 % 0 mm
06:23 4.4 °C -0.6 °C 1015.8 hPa WSW 7.7 km/h 9.3 km/h 70 % 0 mm
06:28 4.6 °C -0.4 °C 1016.1 hPa WNW 2.7 km/h 5.6 km/h 70 % 0 mm
06:33 4.7 °C -0.3 °C 1016.1 hPa SW 10.6 km/h 16.7 km/h 70 % 0 mm
06:38 4.8 °C -0.4 °C 1016.1 hPa WSW 10.9 km/h 22.2 km/h 69 % 0 mm
06:43 4.9 °C -0.3 °C 1016.1 hPa SW 10 km/h 18.5 km/h 69 % 0 mm
06:48 5 °C -0.4 °C 1016.1 hPa WSW 14.3 km/h 19.3 km/h 68 % 0 mm
06:53 5.1 °C -0.3 °C 1016.1 hPa WNW 6.3 km/h 16.7 km/h 68 % 0 mm
06:58 5.2 °C -0.4 °C 1016.5 hPa WNW 10.3 km/h 18.5 km/h 67 % 0 mm
07:03 5.3 °C -0.3 °C 1016.5 hPa West 16.1 km/h 24.1 km/h 67 % 0 mm
07:08 5.3 °C -0.3 °C 1016.5 hPa WNW 10.3 km/h 16.7 km/h 67 % 0 mm
07:13 5.3 °C -0.3 °C 1016.5 hPa West 8.9 km/h 16.7 km/h 67 % 0 mm
07:18 5.3 °C -0.3 °C 1016.5 hPa SW 10.6 km/h 22.5 km/h 67 % 0 mm
07:23 5.4 °C -0.3 °C 1016.8 hPa SW 11.4 km/h 16.1 km/h 67 % 0 mm
07:28 5.4 °C -0.2 °C 1016.8 hPa West 5.8 km/h 12.9 km/h 67 % 0 mm
07:33 5.4 °C -0.2 °C 1016.8 hPa West 15 km/h 20.9 km/h 67 % 0 mm
07:38 5.4 °C -0.2 °C 1016.8 hPa WSW 5.3 km/h 5.6 km/h 67 % 0 mm
07:43 5.5 °C -0.2 °C 1017.2 hPa WNW 8.4 km/h 13 km/h 67 % 0 mm
07:48 5.5 °C -0.2 °C 1017.2 hPa WSW 13.2 km/h 18.5 km/h 67 % 0 mm
07:53 5.6 °C 0.1 °C 1017.5 hPa WSW 7.4 km/h 14.8 km/h 68 % 0 mm
07:58 5.7 °C 0 °C 1017.2 hPa WSW 11.6 km/h 19.3 km/h 67 % 0 mm
08:03 5.7 °C 0.1 °C 1017.5 hPa WNW 10 km/h 16.7 km/h 67 % 0 mm
08:08 5.8 °C 0.1 °C 1017.5 hPa NW 8 km/h 18.5 km/h 67 % 0 mm
08:13 5.9 °C 0.2 °C 1017.5 hPa WNW 11.1 km/h 20.4 km/h 67 % 0 mm
08:18 6 °C 0.1 °C 1017.5 hPa SSW 7.1 km/h 20.4 km/h 66 % 0 mm
08:23 6.1 °C 0.4 °C 1017.5 hPa SW 14 km/h 16.7 km/h 67 % 0 mm
08:28 6.2 °C 0.3 °C 1017.5 hPa WSW 9.3 km/h 18.5 km/h 66 % 0 mm
08:34 6.3 °C 0.4 °C 1017.5 hPa WNW 8.4 km/h 16.7 km/h 66 % 0 mm
08:39 6.4 °C 0.6 °C 1017.5 hPa West 9.7 km/h 25.9 km/h 66 % 0 mm
08:44 6.6 °C 0.5 °C 1017.5 hPa West 11.1 km/h 16.7 km/h 65 % 0 mm
08:47 6.7 °C 0.6 °C 1017.5 hPa West 10.8 km/h 25.9 km/h 65 % 0 mm
08:52 6.9 °C 0.6 °C 1017.5 hPa West 12.9 km/h 22.2 km/h 64 % 0 mm
08:57 7.1 °C 0.7 °C 1017.5 hPa NW 15 km/h 27.8 km/h 64 % 0 mm
09:02 7.3 °C 0.9 °C 1017.5 hPa NW 8.9 km/h 16.7 km/h 64 % 0 mm
09:07 7.4 °C 0.8 °C 1017.5 hPa West 11.3 km/h 19.3 km/h 63 % 0 mm
09:12 7.7 °C 0.6 °C 1017.5 hPa South 11.3 km/h 16.7 km/h 61 % 0 mm
09:17 7.8 °C 0.8 °C 1017.5 hPa West 11.6 km/h 18.5 km/h 61 % 0 mm
09:22 8 °C 0.7 °C 1017.5 hPa WNW 8.4 km/h 13 km/h 60 % 0 mm
09:27 8.1 °C 0.5 °C 1017.5 hPa WNW 13.7 km/h 20.9 km/h 59 % 0 mm
09:32 8.2 °C 0.6 °C 1017.5 hPa WNW 4.8 km/h 14.8 km/h 59 % 0 mm
09:37 8.3 °C 0.7 °C 1017.5 hPa WNW 6.1 km/h 16.7 km/h 59 % 0 mm
09:42 8.4 °C 1.1 °C 1017.5 hPa SSW 13.5 km/h 18.5 km/h 60 % 0 mm
09:47 8.6 °C 1.3 °C 1017.5 hPa SW 7.6 km/h 14.8 km/h 60 % 0 mm
09:52 8.8 °C 0.9 °C 1017.5 hPa WNW 16.1 km/h 27.8 km/h 58 % 0 mm
09:57 8.8 °C 0.8 °C 1017.5 hPa WSW 9.3 km/h 19.3 km/h 57 % 0 mm
10:02 8.9 °C 0.6 °C 1017.5 hPa WSW 6.6 km/h 20.4 km/h 56 % 0 mm
10:07 9 °C 0.7 °C 1017.5 hPa NW 6.6 km/h 13 km/h 56 % 0 mm
10:12 9.1 °C 0.5 °C 1017.5 hPa WNW 13 km/h 18.5 km/h 55 % 0 mm
10:18 9.1 °C -0.2 °C 1017.5 hPa NW 14.5 km/h 33.3 km/h 52 % 0 mm
10:23 9.2 °C 0.1 °C 1017.5 hPa NW 10.6 km/h 24.1 km/h 53 % 0 mm
10:28 9.2 °C 0.1 °C 1017.5 hPa WNW 18.5 km/h 35.2 km/h 53 % 0 mm
10:33 9.2 °C 0.1 °C 1017.5 hPa WNW 14.5 km/h 24.1 km/h 53 % 0 mm
10:38 9.2 °C 0.4 °C 1017.2 hPa West 17.7 km/h 27.8 km/h 54 % 0 mm
10:43 9.3 °C 0.2 °C 1017.2 hPa WSW 16.6 km/h 32.2 km/h 53 % 0 mm
10:48 9.3 °C 0.2 °C 1017.5 hPa West 10.9 km/h 19.3 km/h 53 % 0 mm
10:53 9.2 °C -0.2 °C 1017.2 hPa NW 14.5 km/h 31.5 km/h 52 % 0 mm
10:58 9.1 °C 0 °C 1017.2 hPa West 7.9 km/h 22.5 km/h 53 % 0 mm
11:03 9 °C -0.1 °C 1017.5 hPa West 7.6 km/h 16.7 km/h 53 % 0 mm
11:08 8.9 °C -0.1 °C 1017.5 hPa SW 8.2 km/h 18.5 km/h 53 % 0 mm
11:13 8.9 °C -0.2 °C 1017.5 hPa WSW 9.7 km/h 22.2 km/h 53 % 0 mm
11:18 8.9 °C -0.2 °C 1017.2 hPa WNW 15.4 km/h 24.1 km/h 53 % 0 mm
11:23 8.9 °C -0.2 °C 1017.2 hPa WSW 11.4 km/h 20.9 km/h 53 % 0 mm
11:28 9 °C 0.2 °C 1017.2 hPa West 10 km/h 20.9 km/h 54 % 0 mm
11:33 9.1 °C -0.3 °C 1017.2 hPa West 8.5 km/h 19.3 km/h 52 % 0 mm
11:38 9.1 °C -0.6 °C 1017.2 hPa NW 4.8 km/h 25.9 km/h 51 % 0 mm
11:44 9.1 °C -0.8 °C 1016.8 hPa SW 15.4 km/h 31.5 km/h 50 % 0 mm
11:49 9.1 °C -0.3 °C 1016.8 hPa WNW 11.1 km/h 24.1 km/h 52 % 0 mm
11:54 9.1 °C -0.2 °C 1016.8 hPa WNW 13 km/h 20.4 km/h 52 % 0 mm
11:58 9.1 °C -1.1 °C 1016.8 hPa NW 17.4 km/h 32.2 km/h 49 % 0 mm
12:03 9.1 °C -0.8 °C 1017.2 hPa West 10.3 km/h 24.1 km/h 50 % 0 mm
12:09 9.2 °C -1 °C 1017.2 hPa West 12.2 km/h 25.9 km/h 49 % 0 mm
12:14 9.2 °C -0.7 °C 1017.2 hPa NW 15.3 km/h 27.8 km/h 50 % 0 mm
12:19 9.3 °C -0.1 °C 1017.2 hPa West 12.6 km/h 24.1 km/h 52 % 0 mm
12:24 9.3 °C -0.6 °C 1017.2 hPa WSW 10.3 km/h 20.4 km/h 50 % 0 mm
12:29 9.3 °C -0.8 °C 1017.2 hPa WNW 13.7 km/h 29.6 km/h 49 % 0 mm
12:34 9.3 °C -0.6 °C 1017.2 hPa NNW 13.4 km/h 22.2 km/h 50 % 0 mm
12:39 9.3 °C -0.6 °C 1017.2 hPa WSW 11.1 km/h 22.2 km/h 50 % 0 mm
12:44 9.4 °C -0.3 °C 1017.2 hPa WNW 8.2 km/h 18.5 km/h 51 % 0 mm
12:49 9.4 °C -0.2 °C 1017.2 hPa WNW 9.7 km/h 24.1 km/h 51 % 0 mm
12:54 9.4 °C 0.3 °C 1017.2 hPa NW 11.4 km/h 18.5 km/h 53 % 0 mm
12:59 9.5 °C 0.4 °C 1017.2 hPa West 8.9 km/h 18.5 km/h 53 % 0 mm
13:04 9.6 °C -0.3 °C 1017.2 hPa West 10.9 km/h 25.9 km/h 50 % 0 mm
13:09 9.6 °C -0.3 °C 1017.2 hPa NW 17.2 km/h 27.8 km/h 50 % 0 mm
13:14 9.7 °C -0.3 °C 1017.2 hPa West 13 km/h 22.2 km/h 50 % 0 mm
13:19 9.7 °C -0.3 °C 1017.2 hPa WNW 10.8 km/h 14.8 km/h 50 % 0 mm
13:24 9.7 °C -0.2 °C 1017.2 hPa WSW 11.9 km/h 20.9 km/h 50 % 0 mm
13:29 9.8 °C -0.2 °C 1017.2 hPa WNW 9.3 km/h 14.5 km/h 50 % 0 mm
13:34 9.8 °C -0.1 °C 1017.2 hPa WSW 12.7 km/h 18.5 km/h 50 % 0 mm
13:39 9.9 °C -0.6 °C 1017.2 hPa West 13 km/h 18.5 km/h 48 % 0 mm
13:44 9.9 °C -0.3 °C 1017.2 hPa WSW 10.8 km/h 22.2 km/h 49 % 0 mm
13:50 10 °C -0.2 °C 1017.2 hPa NW 13.7 km/h 16.7 km/h 49 % 0 mm
13:55 10 °C -0.2 °C 1017.2 hPa SW 10.3 km/h 18.5 km/h 49 % 0 mm
14:00 10 °C -0.2 °C 1017.2 hPa NW 9.8 km/h 19.3 km/h 49 % 0 mm
14:05 10 °C -0.2 °C 1017.2 hPa NNW 13.2 km/h 18.5 km/h 49 % 0 mm
14:10 9.9 °C -0.3 °C 1017.5 hPa NW 10.1 km/h 19.3 km/h 49 % 0 mm
14:14 9.8 °C -0.1 °C 1017.5 hPa WNW 5.3 km/h 11.1 km/h 50 % 0 mm
14:20 9.8 °C -0.2 °C 1017.5 hPa WSW 11.1 km/h 22.2 km/h 50 % 0 mm
14:25 9.7 °C -0.6 °C 1017.5 hPa WNW 11.1 km/h 20.4 km/h 49 % 0 mm
14:30 9.6 °C -0.4 °C 1017.5 hPa WSW 5 km/h 11.1 km/h 50 % 0 mm
14:35 9.5 °C -0.4 °C 1017.5 hPa WNW 9.7 km/h 18.5 km/h 50 % 0 mm
14:40 9.4 °C -0.5 °C 1017.5 hPa WNW 13.5 km/h 22.5 km/h 50 % 0 mm
14:45 9.3 °C -0.6 °C 1017.5 hPa WNW 5.1 km/h 18.5 km/h 50 % 0 mm
14:50 9.3 °C -0.6 °C 1017.5 hPa NW 12.2 km/h 27.8 km/h 50 % 0 mm
14:55 9.3 °C -0.9 °C 1017.8 hPa WNW 6.8 km/h 20.4 km/h 49 % 0 mm
15:00 9.3 °C -1.2 °C 1017.8 hPa WNW 10.9 km/h 22.2 km/h 48 % 0 mm
15:02 9.3 °C -0.9 °C 1017.8 hPa NW 7.4 km/h 16.7 km/h 49 % 0 mm
15:07 9.3 °C -0.6 °C 1018.2 hPa NW 5.3 km/h 9.3 km/h 50 % 0 mm
15:12 9.3 °C -0.3 °C 1018.2 hPa WNW 7.1 km/h 16.7 km/h 51 % 0 mm
15:17 9.3 °C -1.2 °C 1018.5 hPa WNW 14.3 km/h 25.7 km/h 48 % 0 mm
15:22 9.3 °C -0.9 °C 1018.5 hPa WNW 8.9 km/h 20.4 km/h 49 % 0 mm
15:27 9.2 °C -0.9 °C 1018.5 hPa WNW 10.8 km/h 18.5 km/h 49 % 0 mm
15:32 9.2 °C -0.7 °C 1018.5 hPa WNW 6 km/h 14.8 km/h 50 % 0 mm
15:37 9.2 °C -0.7 °C 1018.8 hPa West 8 km/h 14.8 km/h 50 % 0 mm
15:42 9.2 °C -0.4 °C 1018.8 hPa West 8.5 km/h 18.5 km/h 51 % 0 mm
15:48 9.2 °C -0.7 °C 1018.8 hPa WNW 6.9 km/h 18.5 km/h 50 % 0 mm
15:53 9.2 °C -1 °C 1018.8 hPa WNW 7.2 km/h 13 km/h 49 % 0 mm
15:58 9.1 °C -0.8 °C 1018.8 hPa NW 9.8 km/h 18.5 km/h 50 % 0 mm
16:03 9.1 °C -0.8 °C 1018.8 hPa West 5.6 km/h 16.7 km/h 50 % 0 mm
16:08 9 °C -1.2 °C 1019.2 hPa WNW 11.1 km/h 20.4 km/h 49 % 0 mm
16:13 8.9 °C -1.2 °C 1019.2 hPa WNW 12.7 km/h 20.4 km/h 49 % 0 mm
16:18 8.9 °C -1.5 °C 1019.2 hPa WNW 6.4 km/h 14.8 km/h 48 % 0 mm
16:23 8.9 °C -1.2 °C 1019.5 hPa WNW 7.4 km/h 16.7 km/h 49 % 0 mm
16:28 8.9 °C -1.3 °C 1019.2 hPa NW 6.4 km/h 14.8 km/h 49 % 0 mm
16:33 8.8 °C -1.1 °C 1019.5 hPa NW 5.8 km/h 16.1 km/h 50 % 0 mm
16:38 8.8 °C -0.5 °C 1019.5 hPa WNW 5.1 km/h 11.1 km/h 52 % 0 mm
16:43 8.8 °C -0.8 °C 1019.9 hPa West 8.7 km/h 18.5 km/h 51 % 0 mm
16:48 8.7 °C -0.6 °C 1019.9 hPa WNW 9.3 km/h 13 km/h 52 % 0 mm
16:53 8.7 °C -1.1 °C 1019.9 hPa West 8.7 km/h 20.9 km/h 50 % 0 mm
16:58 8.7 °C -0.9 °C 1019.9 hPa NW 5 km/h 11.1 km/h 51 % 0 mm
17:03 8.7 °C -0.6 °C 1020.2 hPa WNW 7.4 km/h 18.5 km/h 52 % 0 mm
17:08 8.7 °C -0.6 °C 1020.2 hPa WNW 8.5 km/h 16.7 km/h 52 % 0 mm
17:13 8.7 °C -1.2 °C 1020.2 hPa NW 7.7 km/h 18.5 km/h 50 % 0 mm
17:18 8.7 °C -0.6 °C 1020.2 hPa North 9.7 km/h 16.7 km/h 52 % 0 mm
17:23 8.7 °C -0.7 °C 1020.2 hPa NW 9 km/h 16.7 km/h 52 % 0 mm
17:28 8.6 °C -0.7 °C 1020.5 hPa NW 4.8 km/h 16.1 km/h 52 % 0 mm
17:34 8.6 °C -0.8 °C 1020.9 hPa NNW 6.3 km/h 20.4 km/h 52 % 0 mm
17:39 8.4 °C -0.8 °C 1020.5 hPa NW 3.1 km/h 18.5 km/h 52 % 0 mm
17:44 8.4 °C -0.9 °C 1020.9 hPa West 6.6 km/h 16.7 km/h 52 % 0 mm
17:49 8.3 °C -0.9 °C 1020.9 hPa WNW 8.9 km/h 20.4 km/h 52 % 0 mm
17:54 8.3 °C -1 °C 1021.2 hPa NW 10.6 km/h 22.2 km/h 52 % 0 mm
17:59 8.2 °C -1.1 °C 1021.6 hPa NW 4.8 km/h 9.3 km/h 52 % 0 mm
18:04 8.2 °C -0.6 °C 1021.6 hPa NNW 8.7 km/h 18.5 km/h 54 % 0 mm
18:09 8.2 °C -0.8 °C 1021.6 hPa North 10.5 km/h 20.9 km/h 53 % 0 mm
18:14 8.1 °C -0.9 °C 1021.6 hPa North 10.5 km/h 20.4 km/h 53 % 0 mm
18:19 7.9 °C -1.1 °C 1021.9 hPa NW 10 km/h 18.5 km/h 53 % 0 mm
18:24 7.9 °C -1.4 °C 1022.2 hPa NW 10.6 km/h 18.5 km/h 52 % 0 mm
18:29 7.8 °C -1.5 °C 1022.2 hPa WNW 5.6 km/h 14.8 km/h 52 % 0 mm
18:34 7.7 °C -1.6 °C 1022.6 hPa NNW 7.1 km/h 16.7 km/h 52 % 0 mm
18:39 7.7 °C -1.6 °C 1022.6 hPa NW 7.7 km/h 16.7 km/h 52 % 0 mm
18:44 7.6 °C -1.7 °C 1022.6 hPa North 12.1 km/h 12.9 km/h 52 % 0 mm
18:49 7.5 °C -1.5 °C 1022.9 hPa NNW 8.2 km/h 11.3 km/h 53 % 0 mm
18:54 7.4 °C -1.5 °C 1022.9 hPa NW 4.5 km/h 16.7 km/h 53 % 0 mm
19:00 7.4 °C -1.6 °C 1022.9 hPa NNW 9.5 km/h 18.5 km/h 53 % 0 mm
19:05 7.4 °C -1.6 °C 1022.9 hPa WNW 9.5 km/h 18.5 km/h 53 % 0 mm
19:10 7.3 °C -1.6 °C 1022.9 hPa NW 5.6 km/h 11.1 km/h 53 % 0 mm
19:15 7.3 °C -1.4 °C 1023.2 hPa NW 6.6 km/h 16.7 km/h 54 % 0 mm
19:20 7.3 °C -1.2 °C 1023.2 hPa WNW 4 km/h 9.7 km/h 55 % 0 mm
19:25 7.3 °C -1.7 °C 1023.2 hPa NNW 6.6 km/h 9.3 km/h 53 % 0 mm
19:30 7.2 °C -2 °C 1023.2 hPa NNE 7.9 km/h 18.5 km/h 52 % 0 mm
19:35 7.2 °C -2.1 °C 1023.2 hPa NNW 7.9 km/h 14.8 km/h 52 % 0 mm
19:40 7.1 °C -2.3 °C 1023.6 hPa North 6 km/h 13 km/h 51 % 0 mm
19:45 7.1 °C -2.2 °C 1023.2 hPa NW 8.4 km/h 22.5 km/h 52 % 0 mm
19:50 7.1 °C -1.9 °C 1023.6 hPa NW 4.2 km/h 8 km/h 53 % 0 mm
19:55 7 °C -2.2 °C 1023.6 hPa NNW 8.4 km/h 13 km/h 52 % 0 mm
20:00 6.9 °C -2 °C 1023.6 hPa NNW 4.3 km/h 7.4 km/h 53 % 0 mm
20:05 6.8 °C -2.1 °C 1023.6 hPa NNW 1.4 km/h 5.6 km/h 53 % 0 mm
20:10 6.8 °C -1.9 °C 1023.9 hPa NNE 2.1 km/h 7.4 km/h 54 % 0 mm
20:15 6.7 °C -2 °C 1023.9 hPa NW 1.6 km/h 3.7 km/h 54 % 0 mm
20:20 6.6 °C -2.3 °C 1023.9 hPa NNW 5.5 km/h 11.3 km/h 53 % 0 mm
20:25 6.5 °C -2.2 °C 1023.9 hPa North 5 km/h 7.4 km/h 54 % 0 mm
20:30 6.4 °C -2 °C 1024.3 hPa NNE 6.1 km/h 9.3 km/h 55 % 0 mm
20:35 6.3 °C -2.3 °C 1024.3 hPa North 4.3 km/h 12.9 km/h 54 % 0 mm
20:40 6.3 °C -2.3 °C 1024.3 hPa NNE 9.2 km/h 14.5 km/h 54 % 0 mm
20:45 6.2 °C -3.2 °C 1024.6 hPa North 8.2 km/h 13 km/h 51 % 0 mm
20:50 6.2 °C -2.9 °C 1024.6 hPa NNW 3.9 km/h 11.1 km/h 52 % 0 mm
20:55 6.1 °C -2.8 °C 1024.6 hPa NNW 4.7 km/h 13 km/h 53 % 0 mm
21:00 6.1 °C -3.1 °C 1024.6 hPa North 6.4 km/h 9.7 km/h 52 % 0 mm
21:05 6 °C -3.1 °C 1024.6 hPa NNW 9.8 km/h 16.7 km/h 52 % 0 mm
21:10 5.9 °C -3.2 °C 1024.6 hPa NNW 5.5 km/h 11.1 km/h 52 % 0 mm
21:15 5.8 °C -3 °C 1024.6 hPa North 6 km/h 11.1 km/h 53 % 0 mm
21:21 5.8 °C -2.8 °C 1024.6 hPa North 8 km/h 12.9 km/h 54 % 0 mm
21:26 5.7 °C -2.6 °C 1024.9 hPa NNE 4.8 km/h 16.1 km/h 55 % 0 mm
21:31 5.7 °C -2.7 °C 1024.9 hPa NNE 3.2 km/h 14.5 km/h 55 % 0 mm
21:36 5.6 °C -3 °C 1024.9 hPa NNE 9.7 km/h 16.1 km/h 54 % 0 mm
21:41 5.6 °C -2.8 °C 1024.9 hPa North 6.4 km/h 9.3 km/h 55 % 0 mm
21:46 5.5 °C -3.3 °C 1024.9 hPa North 8 km/h 12.9 km/h 53 % 0 mm
21:51 5.4 °C -2.9 °C 1024.9 hPa North 4.8 km/h 11.3 km/h 55 % 0 mm
21:56 5.3 °C -3 °C 1024.9 hPa North 4.8 km/h 11.3 km/h 55 % 0 mm
22:01 5.2 °C -3.1 °C 1025.3 hPa North 4.7 km/h 7.4 km/h 55 % 0 mm
22:06 5.2 °C -2.9 °C 1025.3 hPa North 5.8 km/h 9.3 km/h 56 % 0 mm
22:11 5.1 °C -2.7 °C 1025.6 hPa North 6.6 km/h 11.3 km/h 57 % 0 mm
22:16 5 °C -2.8 °C 1025.6 hPa NNE 5.3 km/h 9.3 km/h 57 % 0 mm
22:21 4.9 °C -2.9 °C 1025.6 hPa North 4.8 km/h 5.6 km/h 57 % 0 mm
22:26 4.9 °C -2.9 °C 1025.6 hPa NNW 4.8 km/h 7.4 km/h 57 % 0 mm
22:31 4.8 °C -2.5 °C 1025.6 hPa NNE 4.8 km/h 11.3 km/h 59 % 0 mm
22:36 4.7 °C -2.4 °C 1026 hPa NNE 6.3 km/h 13 km/h 60 % 0 mm
22:41 4.6 °C -2.7 °C 1026 hPa NNW 7.4 km/h 11.1 km/h 59 % 0 mm
22:46 4.6 °C -2.8 °C 1026 hPa NE 6.8 km/h 12.9 km/h 59 % 0 mm
22:51 4.4 °C -2.9 °C 1026.3 hPa NNE 6 km/h 12.9 km/h 59 % 0 mm
22:56 4.4 °C -2.9 °C 1026.3 hPa NNE 7.4 km/h 13 km/h 59 % 0 mm
23:01 4.3 °C -3 °C 1026.3 hPa NNE 6.4 km/h 13 km/h 59 % 0 mm
23:06 4.3 °C -3.1 °C 1026.3 hPa NNE 6 km/h 7.4 km/h 59 % 0 mm
23:11 4.3 °C -3.1 °C 1026.3 hPa North 5.6 km/h 11.1 km/h 59 % 0 mm
23:16 4.2 °C -2.9 °C 1026.3 hPa NE 5.8 km/h 9.3 km/h 60 % 0 mm
23:22 4.2 °C -2.9 °C 1026.3 hPa NNE 7.9 km/h 11.1 km/h 60 % 0 mm
23:27 4.1 °C -2.7 °C 1026.3 hPa NNE 5.3 km/h 7.4 km/h 61 % 0 mm
23:32 4.1 °C -2.8 °C 1026.3 hPa North 5.8 km/h 11.1 km/h 61 % 0 mm
23:37 4 °C -3.1 °C 1026.6 hPa North 1.3 km/h 5.6 km/h 60 % 0 mm
23:42 3.9 °C -3.1 °C 1026.6 hPa North 0.5 km/h 5.6 km/h 60 % 0 mm
23:47 3.9 °C -3.4 °C 1026.6 hPa North 1 km/h 3.2 km/h 59 % 0 mm
23:52 3.8 °C -3.2 °C 1026.6 hPa North 3.9 km/h 5.6 km/h 60 % 0 mm
23:57 3.8 °C -3.3 °C 1026.6 hPa North 4.8 km/h 5.6 km/h 60 % 0 mm
Crab Meadow Weather
Compliments of Weather Underground - 3 mb

Script developed by  Jim McMurry - jmcmurry@mwt.net Adapted for the template by  Wim van der Kuil - Leuven-Template.eu

Weather Terms: Funnel Cloud - A rotating column of air, extending from a towering cumulus or cumulonimbus cloud, that is not in contact with the ground.